EW8497 Weather Reports


time (UTC)temp
F
wind
direction
speed
knots
gust
knots
rain 1hr
in
rain 24hr
in
rain mn
in
humidity
%
barometer
mb
20260906151602 74 101 4.3 9.6 0.00 0.01 0.01 79 1019.8
20260906150057 73 85 4.3 7.8 0.00 0.01 0.01 80 1019.6
20260906144624 72 117 3.5 9.6 0.00 0.01 0.01 86 1019.7
20260906143113 71 63 5.2 8.7 0.00 0.01 0.01 85 1019.5
20260906141606 70 68 3.5 7.8 0.00 0.01 0.01 87 1019.5
20260906140103 69 125 4.3 7.8 0.00 0.01 0.01 88 1019.6
20260906134558 68 88 4.3 7.8 0.00 0.01 0.01 90 1019.7
20260906133108 67 86 5.2 7.8 0.00 0.01 0.01 92 1019.6
20260906131615 66 88 3.5 7.8 0.00 0.01 0.01 94 1019.4
20260906124605 63 61 0.0 0.9 0.00 0.02 0.01 94 1019.5
20260906123111 62 0 0.0 0.9 0.00 0.02 0.01 94 1019.5
20260906121602 61 61 0.9 1.7 0.00 0.02 0.01 94 1019.3
20260906120117 61 61 1.7 2.6 0.01 0.02 0.01 94 1019.2
20260906114602 61 61 0.9 1.7 0.01 0.02 0.01 94 1018.9
20260906113054 61 61 0.0 2.6 0.01 0.02 0.01 94 1018.7
20260906111601 61 61 1.7 2.6 0.01 0.02 0.01 93 1018.6
20260906110100 62 0 0.0 0.9 0.00 0.01 0.00 93 1018.3
20260906104556 63 0 0.0 2.6 0.00 0.01 0.00 94 1018.3
20260906103055 64 61 1.7 5.2 0.00 0.01 0.00 94 1018.1
20260906101603 64 59 2.6 6.1 0.00 0.01 0.00 93 1017.7
20260906100056 64 51 2.6 5.2 0.00 0.01 0.00 94 1017.9
20260906094556 63 66 2.6 4.3 0.00 0.01 0.00 93 1017.9
20260906093116 63 53 1.7 4.3 0.00 0.01 0.00 93 1017.9
20260906091604 63 66 1.7 2.6 0.00 0.01 0.00 93 1017.9
20260906090119 63 67 0.0 2.6 0.00 0.01 0.00 92 1018.0
20260906084559 64 67 0.9 3.5 0.00 0.01 0.00 92 1017.8
20260906083056 64 63 1.7 4.3 0.00 0.01 0.00 92 1017.9
20260906081601 65 67 1.7 4.3 0.00 0.01 0.00 92 1017.9
20260906080100 65 71 2.6 6.1 0.00 0.01 0.00 92 1017.9
20260906074555 65 46 2.6 5.2 0.00 0.01 0.00 92 1018.0
20260906073100 65 49 1.7 4.3 0.00 0.01 0.00 93 1018.0
20260906071610 65 44 1.7 4.3 0.00 0.01 0.00 93 1018.2
20260906070100 65 51 2.6 4.3 0.00 0.01 0.00 93 1018.1
20260906064601 65 52 1.7 3.5 0.00 0.01 0.00 93 1018.2
20260906063056 65 52 0.0 2.6 0.00 0.01 0.00 92 1018.5
20260906061555 65 52 0.0 2.6 0.00 0.01 0.00 92 1018.4
20260906060104 66 52 0.9 2.6 0.00 0.01 0.00 92 1018.4
20260906054600 67 52 0.9 2.6 0.00 0.01 0.00 92 1018.3
20260906053056 67 52 0.9 3.5 0.00 0.01 0.00 91 1018.3
20260906051556 68 53 1.7 4.3 0.00 0.01 0.00 90 1018.1
20260906050131 68 53 2.6 6.1 0.00 0.01 0.00 89 1017.9
20260906044605 69 53 2.6 7.0 0.00 0.01 0.01 88 1017.8
20260906043110 69 71 4.3 9.6 0.00 0.01 0.01 87 1017.6
20260906041602 70 74 6.1 9.6 0.00 0.01 0.01 87 1017.4
20260906040101 70 59 3.5 10.4 0.00 0.01 0.01 87 1017.2
20260906034600 71 68 4.3 8.7 0.00 0.01 0.01 87 1017.0
20260906033056 71 65 5.2 12.2 0.00 0.01 0.01 87 1016.7
20260906031557 72 69 4.3 8.7 0.00 0.01 0.01 87 1016.6
20260906030114 72 80 3.5 10.4 0.00 0.01 0.01 87 1016.4
20260906024555 72 63 5.2 9.6 0.00 0.01 0.01 87 1016.2
20260906023116 72 58 3.5 7.8 0.00 0.01 0.01 86 1016.0
20260906021611 72 59 2.6 4.3 0.00 0.01 0.01 87 1016.0
20260906020104 72 54 2.6 7.0 0.00 0.01 0.01 86 1015.7
20260906014553 72 60 2.6 5.2 0.00 0.01 0.01 85 1015.5
20260906013057 73 59 2.6 6.1 0.00 0.01 0.01 85 1015.4
20260906011554 72 46 2.6 5.2 0.00 0.01 0.01 84 1015.3
20260906010059 73 53 2.6 7.0 0.00 0.01 0.01 84 1015.2
20260906004600 73 38 2.6 5.2 0.00 0.01 0.01 83 1015.4
20260906003107 73 37 2.6 4.3 0.00 0.01 0.01 82 1015.5
20260906001603 74 38 1.7 4.3 0.00 0.01 0.01 81 1015.5
20260906000107 75 44 2.6 6.1 0.00 0.01 0.01 80 1015.4
20260905234615 76 44 3.5 8.7 0.00 0.01 0.01 79 1015.5
20260905233059 76 38 4.3 9.6 0.00 0.01 0.01 78 1015.7
20260905231600 77 28 5.2 9.6 0.00 0.01 0.01 78 1015.7
20260905230058 78 34 2.6 9.6 0.00 0.01 0.01 77 1015.8
20260905224556 80 55 3.5 7.0 0.00 0.01 0.01 75 1015.8
20260905223057 80 12 1.7 6.1 0.00 0.01 0.01 78 1016.0
20260905221602 79 21 3.5 7.8 0.00 0.01 0.01 79 1015.8
20260905220059 79 5 1.7 7.8 0.00 0.01 0.01 76 1015.9
20260905214611 80 355 1.7 4.3 0.00 0.01 0.01 77 1015.8
20260905213114 78 51 4.3 8.7 0.00 0.01 0.01 78 1015.6
20260905211603 77 19 4.3 10.4 0.00 0.01 0.01 80 1015.5
20260905210106 77 34 4.3 9.6 0.00 0.01 0.01 81 1015.7
20260905204602 77 360 5.2 9.6 0.00 0.01 0.01 81 1016.0
20260905203058 77 48 5.2 11.3 0.00 0.01 0.01 81 1016.0
20260905201607 78 360 6.1 10.4 0.00 0.01 0.01 81 1015.9
20260905194602 78 53 6.1 8.7 0.00 0.01 0.01 81 1015.9
20260905193059 78 25 4.3 9.6 0.00 0.01 0.01 84 1016.2
20260905191600 78 55 3.5 8.7 0.00 0.01 0.01 81 1016.2
20260905190054 78 21 3.5 8.7 0.00 0.01 0.01 81 1015.9
20260905184611 78 355 4.3 8.7 0.00 0.01 0.01 85 1016.1
20260905183118 78 12 4.3 9.6 0.00 0.01 0.01 82 1015.9
20260905181601 78 34 6.1 10.4 0.00 0.01 0.01 82 1016.1
20260905180059 78 360 5.2 9.6 0.00 0.01 0.01 82 1016.1
20260905174629 78 42 6.1 10.4 0.00 0.01 0.01 83 1016.2
20260905173112 78 36 5.2 9.6 0.00 0.01 0.01 83 1016.3
20260905171602 77 355 4.3 8.7 0.00 0.01 0.01 84 1016.5
20260905170107 76 342 4.3 7.8 0.00 0.01 0.01 86 1016.3
20260905164604 76 28 5.2 8.7 0.00 0.01 0.01 87 1016.4
20260905163107 76 5 4.3 9.6 0.00 0.01 0.01 86 1016.3
20260905161559 76 40 5.2 9.6 0.00 0.01 0.01 86 1016.4
20260905160059 76 29 6.1 11.3 0.00 0.01 0.01 86 1016.3
20260905154604 75 37 4.3 8.7 0.00 0.02 0.01 89 1016.2
20260905153106 75 49 4.3 10.4 0.00 0.02 0.01 89 1016.2